STARLINK-1877 (47162 NORAD) Tracking and Keplerian Element Data

This shows tracking and keplerian element data for the satellite.

Feedback or suggestion? Click here.




ElementValue
Catalog47162
NameSTARLINK-1877
Epoch Orbit180
Epoch Day99.91667824
Epoch Year2021
RAAN78.6529
Inclination53.0538
Eccentricity0.0001096
Argument of Perigee74.999
Mean Anonmoly85.9786
Mean Motion15.06384418
Decay Rate0.0002045
L11 47162U 20088AS 21099.91667824 .00020450 00000-0 13884-2 0 9999
L22 47162 53.0538 78.6529 0001096 74.9990 85.9786 15.06384418 1809

Live tracking and technical data element details for STARLINK-1877 (NORAD 47162). STARLINK-1877 can be tracked NOW for your location showing map with azimuth and elevation plus other details from your city location.

Track the satellite on the map from your city or location and see movement details for azimuth, elevation, latitude, longitude, range, height, and movement on the map or in text.







IsCatalogInMostPopularTable: catalog: 47162, numindb: 53
Update: records affected: 1



GetName: 47162 STARLINK-1877

Hit Count: updated at: Sat, 10 Apr 2021 19:33:13 GMT